Date String (YYYY-MM-DD hh:mm:ss) UTC,Instrument flags,absolute air pressure of the measurement (hPa),sample flow rate (lpm),inlet stack bypass flow (lpm),air temperature of the measurement (°C),ambient temperature measured by the external sensor (°C),aerosol sample conditioner tube jacket temperature (°C),OPC LED temperature (°C),internal box temperature (°C),relative humidity of the measurement (%),span deviation,mass concentration of particles derived from Lorenz-Mie calculation of OPC scattering (μg/m³),mass concentration of particles derived from Lorenz-Mie calculation of OPC scattering (μg/m³),mass concentration of particles derived from Lorenz-Mie calculation of OPC scattering (μg/m³)
DateTimeUTC,F1_M11,P_M11,Q1_M11,Q2_M11,T1_M11,T2_M11,T3_M11,T4_M11,T5_M11,U1_M11,ZSPAN_M11,X0_M11,X2_M11,X1_M11
2024-04-19 21:00:00,SystemResetWarning,0833.8,5.00,000.00,019.9,019.3,000.0,028.5,021.7,024.5,0000.0,0006.54,0002.79,0002.57
2024-04-19 21:01:00,SystemResetWarning,0833.8,5.00,000.00,019.9,019.3,000.0,028.5,021.7,024.5,0000.0,0005.71,0002.80,0002.58
2024-04-19 21:02:00,SystemResetWarning,0833.8,5.00,000.00,019.9,019.3,000.0,028.5,021.7,024.5,0000.0,0006.12,0002.84,0002.59
2024-04-19 21:03:00,SystemResetWarning,0833.8,5.00,000.00,019.9,019.3,000.0,028.5,021.7,024.6,0000.0,0006.16,0002.86,0002.61
2024-04-19 21:04:00,SystemResetWarning,0833.8,5.00,000.00,019.9,019.3,000.0,028.5,021.7,024.6,0000.0,0006.12,0002.86,0002.61
2024-04-19 21:05:00,SystemResetWarning,0833.7,4.99,000.00,019.9,019.3,000.0,028.5,021.7,024.6,0000.0,0004.82,0002.86,0002.62
2024-04-19 21:06:00,SystemResetWarning,0833.7,5.00,000.00,019.9,019.2,000.0,028.5,021.7,024.6,0000.0,0004.83,0002.89,0002.64
2024-04-19 21:07:00,SystemResetWarning,0833.7,5.00,000.00,019.9,019.2,000.0,028.5,021.7,024.6,0000.0,0004.90,0002.91,0002.65
2024-04-19 21:08:00,SystemResetWarning,0833.8,5.01,000.00,019.9,019.2,000.0,028.5,021.7,024.5,0000.0,0003.71,0002.90,0002.66
2024-04-19 21:09:00,SystemResetWarning,0833.7,5.01,000.00,019.9,019.2,000.0,028.5,021.7,024.5,0000.0,0003.71,0002.90,0002.67
2024-04-19 21:10:00,SystemResetWarning,0833.8,4.99,000.00,019.9,019.2,000.0,028.5,021.7,024.6,0000.0,0003.70,0002.88,0002.68
2024-04-19 21:11:00,SystemResetWarning,0833.8,4.99,000.00,019.9,019.2,000.0,028.5,021.7,024.6,0000.0,0003.77,0002.88,0002.69
2024-04-19 21:12:00,SystemResetWarning,0833.8,5.00,000.00,019.9,019.2,000.0,028.5,021.7,024.6,0000.0,0003.74,0002.89,0002.70
2024-04-19 21:13:00,SystemResetWarning,0833.8,4.99,000.00,019.9,019.2,000.0,028.4,021.7,024.7,0000.0,0003.44,0002.93,0002.73
2024-04-19 21:14:00,SystemResetWarning,0833.9,4.99,000.00,019.9,019.2,000.0,028.4,021.7,024.8,0000.0,0003.45,0002.94,0002.74
2024-04-19 21:15:00,SystemResetWarning,0833.9,5.01,000.00,019.9,019.2,000.0,028.4,021.7,024.8,0000.0,0003.47,0002.97,0002.77
2024-04-19 21:16:00,SystemResetWarning,0833.9,5.01,000.00,019.9,019.2,000.0,028.4,021.7,024.7,0000.0,0003.45,0002.96,0002.78
2024-04-19 21:17:00,SystemResetWarning,0834.0,5.00,000.00,019.9,019.2,000.0,028.4,021.7,024.7,0000.0,0003.50,0002.98,0002.79
2024-04-19 21:18:00,SystemResetWarning,0833.9,4.99,000.00,019.9,019.2,000.0,028.4,021.7,024.7,0000.0,0003.48,0002.99,0002.80
2024-04-19 21:19:00,SystemResetWarning,0833.8,4.99,000.00,019.9,019.2,000.0,028.4,021.6,024.7,0000.0,0003.56,0003.02,0002.82
2024-04-19 21:20:00,SystemResetWarning,0833.8,5.00,000.00,019.9,019.2,000.0,028.4,021.6,024.6,0000.0,0003.60,0003.05,0002.83
2024-04-19 21:21:00,SystemResetWarning,0833.9,5.01,000.00,019.9,019.2,000.0,028.4,021.6,024.5,0000.0,0003.57,0003.06,0002.84
2024-04-19 21:22:00,SystemResetWarning,0833.9,5.01,000.00,019.9,019.2,000.0,028.4,021.6,024.4,0000.0,0003.46,0003.02,0002.81
2024-04-19 21:23:00,SystemResetWarning,0834.0,5.00,000.00,019.9,019.2,000.0,028.4,021.6,024.3,0000.0,0003.25,0002.96,0002.78
2024-04-19 21:24:00,SystemResetWarning,0833.9,4.99,000.00,019.9,019.2,000.0,028.4,021.6,024.2,0000.0,0003.16,0002.86,0002.73
2024-04-19 21:25:00,SystemResetWarning,0833.9,4.99,000.00,019.8,019.2,000.0,028.4,021.6,024.2,0000.0,0004.00,0002.80,0002.67
2024-04-19 21:26:00,SystemResetWarning,0833.9,4.99,000.00,019.8,019.2,000.0,028.4,021.6,024.1,0000.0,0003.96,0002.76,0002.62
2024-04-19 21:27:00,SystemResetWarning,0833.9,5.00,000.00,019.8,019.1,000.0,028.4,021.6,024.1,0000.0,0004.08,0002.72,0002.58
2024-04-19 21:28:00,SystemResetWarning,0833.8,5.00,000.00,019.8,019.1,000.0,028.4,021.6,024.1,0000.0,0004.09,0002.70,0002.57
2024-04-19 21:29:00,SystemResetWarning,0833.8,5.00,000.00,019.8,019.1,000.0,028.4,021.6,024.2,0000.0,0004.01,0002.66,0002.55
2024-04-19 21:30:00,SystemResetWarning,0833.8,5.01,000.00,019.8,019.1,000.0,028.4,021.6,024.3,0000.0,0003.97,0002.64,0002.54
2024-04-19 21:31:00,SystemResetWarning,0833.7,5.01,000.00,019.8,019.1,000.0,028.4,021.6,025.0,0000.0,0004.00,0002.66,0002.54
2024-04-19 21:32:00,SystemResetWarning,0833.8,5.00,000.00,019.8,019.1,000.0,028.4,021.6,024.7,0000.0,0004.06,0002.69,0002.56
2024-04-19 21:33:00,SystemResetWarning,0833.8,5.00,000.00,019.8,019.1,000.0,028.4,021.6,024.5,0000.0,0004.10,0002.73,0002.59
2024-04-19 21:34:00,SystemResetWarning,0833.8,5.01,000.00,019.8,019.1,000.0,028.4,021.6,024.5,0000.0,0004.21,0002.78,0002.63
2024-04-19 21:35:00,SystemResetWarning,0833.8,5.00,000.00,019.8,019.1,000.0,028.4,021.6,024.5,0000.0,0004.40,0002.88,0002.69
2024-04-19 21:36:00,SystemResetWarning,0833.9,4.99,000.00,019.8,019.1,000.0,028.4,021.6,024.5,0000.0,0003.64,0002.98,0002.76
2024-04-19 21:37:00,SystemResetWarning,0834.0,4.99,000.00,019.8,019.1,000.0,028.4,021.6,024.4,0000.0,0003.66,0003.06,0002.81
2024-04-19 21:38:00,SystemResetWarning,0833.9,5.00,000.00,019.8,019.1,000.0,028.3,021.5,024.5,0000.0,0003.64,0003.11,0002.87
2024-04-19 21:39:00,SystemResetWarning,0833.8,5.01,000.00,019.8,019.1,000.0,028.3,021.5,024.4,0000.0,0003.56,0003.13,0002.89
2024-04-19 21:40:00,SystemResetWarning,0833.9,5.01,000.00,019.7,019.1,000.0,028.3,021.5,024.5,0000.0,0003.68,0003.16,0002.92
2024-04-19 21:41:00,SystemResetWarning,0833.8,5.00,000.00,019.7,019.1,000.0,028.3,021.5,024.5,0000.0,0003.72,0003.17,0002.93
2024-04-19 21:42:00,SystemResetWarning,0833.9,5.00,000.00,019.7,019.1,000.0,028.3,021.5,024.5,0000.0,0004.13,0003.16,0002.94
2024-04-19 21:43:00,SystemResetWarning,0833.9,5.00,000.00,019.7,019.1,000.0,028.3,021.5,024.5,0000.0,0004.22,0003.15,0002.93
2024-04-19 21:44:00,SystemResetWarning,0833.9,5.01,000.00,019.7,019.1,000.0,028.3,021.5,024.5,0000.0,0004.22,0003.15,0002.92
2024-04-19 21:45:00,SystemResetWarning,0833.9,4.99,000.00,019.7,019.1,000.0,028.3,021.5,024.6,0000.0,0004.22,0003.16,0002.92
2024-04-19 21:46:00,SystemResetWarning,0833.9,5.00,000.00,019.7,019.1,000.0,028.3,021.5,024.5,0000.0,0004.14,0003.15,0002.92
2024-04-19 21:47:00,SystemResetWarning,0834.0,5.00,000.00,019.7,019.1,000.0,028.3,021.5,024.5,0000.0,0004.03,0003.13,0002.91
2024-04-19 21:48:00,SystemResetWarning,0833.9,5.00,000.00,019.7,019.1,000.0,028.3,021.5,024.5,0000.0,0003.97,0003.10,0002.89
2024-04-19 21:49:00,SystemResetWarning,0833.9,5.00,000.00,019.7,019.1,000.0,028.3,021.5,024.4,0000.0,0004.08,0003.12,0002.89
2024-04-19 21:50:00,SystemResetWarning,0833.8,4.99,000.00,019.7,019.1,000.0,028.3,021.5,024.4,0000.0,0004.20,0003.14,0002.90
2024-04-19 21:51:00,SystemResetWarning,0833.9,5.00,000.00,019.7,019.1,000.0,028.3,021.5,024.4,0000.0,0004.19,0003.15,0002.90
2024-04-19 21:52:00,SystemResetWarning,0833.8,5.01,000.00,019.7,019.1,000.0,028.3,021.5,024.3,0000.0,0004.18,0003.15,0002.91
2024-04-19 21:53:00,SystemResetWarning,0833.9,5.01,000.00,019.7,019.1,000.0,028.3,021.5,024.2,0000.0,0003.90,0003.16,0002.91
2024-04-19 21:54:00,SystemResetWarning,0833.8,4.99,000.00,019.7,019.1,000.0,028.3,021.5,024.1,0000.0,0003.74,0003.17,0002.91
2024-04-19 21:55:00,SystemResetWarning,0833.8,4.99,000.00,019.7,019.1,000.0,028.3,021.5,024.1,0000.0,0003.99,0003.18,0002.92
2024-04-19 21:56:00,SystemResetWarning,0833.8,5.02,000.00,019.7,019.1,000.0,028.3,021.5,024.3,0000.0,0004.99,0003.16,0002.91
2024-04-19 21:57:00,SystemResetWarning,0833.8,5.00,000.00,019.7,019.1,000.0,028.3,021.5,024.3,0000.0,0005.03,0003.16,0002.90
2024-04-19 21:58:00,SystemResetWarning,0833.9,4.99,000.00,019.7,019.1,000.0,028.3,021.5,024.3,0000.0,0005.11,0003.17,0002.90
2024-04-19 21:59:00,SystemResetWarning,0833.9,4.99,000.00,019.7,019.1,000.0,028.3,021.5,024.2,0000.0,0005.23,0003.20,0002.93
